EDT,Max TemperatureF,Mean TemperatureF,Min TemperatureF,Max Dew PointF,MeanDew PointF,Min DewpointF,Max Humidity, Mean Humidity, Min Humidity, Max Sea Level PressureIn, Mean Sea Level PressureIn, Min Sea Level PressureIn, Max VisibilityMiles, Mean VisibilityMiles, Min VisibilityMiles, Max Wind SpeedMPH, Mean Wind SpeedMPH, Max Gust SpeedMPH,PrecipitationIn, CloudCover, Events, WindDirDegrees
2012-9-1,95,84,73,79,74,70,100,80,49,30.14,30.08,30.01,10,8,2,9,5,,0.00,1,Thunderstorm,244
2012-9-2,95,83,71,75,73,72,100,81,47,30.05,30.01,29.95,10,10,5,15,2,28,0.00,1,Thunderstorm,178
2012-9-3,87,79,71,77,74,70,100,84,62,30.07,30.02,29.99,10,8,2,14,4,18,1.23,2,Thunderstorm,139
2012-9-4,89,80,71,75,72,68,100,82,55,30.06,30.01,29.96,10,8,2,14,3,18,0.00,1,,184
2012-9-5,91,80,69,75,72,68,100,77,52,29.99,29.95,29.89,10,10,10,14,6,20,0.00,1,,206
2012-9-6,91,81,71,75,72,70,100,79,52,29.97,29.93,29.88,10,9,2,14,7,18,1.95,2,Thunderstorm,215
2012-9-7,86,78,71,75,72,70,100,88,66,29.98,29.92,29.88,10,9,2,8,2,,0.00,5,Thunderstorm,20
2012-9-8,91,81,71,75,73,70,100,81,59,29.88,29.82,29.74,10,9,3,17,6,21,0.05,3,Thunderstorm,200
2012-9-9,78,69,60,70,65,57,94,80,57,29.97,29.86,29.79,10,10,6,12,4,,0.00,5,,347
2012-9-10,78,68,57,57,55,52,94,68,39,30.17,30.06,29.96,10,10,8,12,3,18,0.00,0,,334
2012-9-11,78,66,53,59,53,48,94,69,36,30.30,30.25,30.17,10,10,10,13,3,20,0.00,0,,13
2012-9-12,78,66,53,61,57,50,94,74,47,30.35,30.31,30.28,10,10,10,13,3,16,0.00,1,,34
2012-9-13,82,70,57,66,61,55,94,77,51,30.33,30.28,30.22,10,10,10,12,4,17,0.00,1,,7
2012-9-14,84,74,64,70,66,64,100,81,55,30.24,30.18,30.13,10,10,0,14,4,,0.00,2,Thunderstorm,35
2012-9-15,84,73,62,68,64,61,100,78,48,30.17,30.13,30.08,10,7,0,8,2,,0.00,3,,4
2012-9-16,77,70,64,66,63,57,94,79,57,30.17,30.13,30.08,10,10,8,9,4,,0.08,5,,43
2012-9-17,84,75,66,72,67,63,94,82,62,30.12,30.06,30.00,10,10,10,10,2,,0.00,4,,148
2012-9-18,82,76,69,75,71,68,94,89,66,29.99,29.86,29.78,10,10,3,26,8,43,1.81,3,Thunderstorm,174
2012-9-19,71,66,62,70,63,55,100,84,64,30.11,29.99,29.85,10,10,5,16,6,21,0.00,6,,345
2012-9-20,75,68,62,63,58,55,94,73,53,30.14,30.10,30.05,10,10,10,12,6,,0.00,3,,350
2012-9-21,80,68,57,64,60,55,94,77,45,30.11,30.06,30.02,10,10,5,8,1,,0.00,1,,38
2012-9-22,84,70,57,66,63,55,94,79,51,30.05,30.01,29.95,10,10,7,15,3,16,0.00,0,,196
2012-9-23,78,70,60,68,60,52,100,73,44,30.12,30.04,29.97,10,10,5,13,6,20,0.00,1,,345
2012-9-24,73,63,53,54,50,45,94,70,36,30.22,30.17,30.11,10,10,10,13,5,17,0.00,0,,5
2012-9-25,78,63,48,61,52,45,94,72,41,30.28,30.23,30.19,10,10,10,9,1,,0.00,1,,149
2012-9-26,82,68,53,64,58,52,94,75,42,30.25,30.21,30.17,10,10,4,9,1,,0.00,0,,176
2012-9-27,84,70,55,66,60,54,94,78,45,30.22,30.17,30.11,10,9,2,9,1,,0.00,0,,213
2012-9-28,86,72,57,68,62,55,100,77,43,30.13,30.07,30.00,10,8,0,9,2,,0.00,2,,210
2012-9-29,75,70,64,68,66,63,100,90,73,30.02,29.95,29.89,10,7,0,8,3,,0.01,3,Thunderstorm,18
2012-9-30,71,66,60,64,61,57,94,87,69,29.93,29.90,29.87,10,9,2,7,3,,0.01,7,,338